Regional Weather Roundup
Issued by NWS Cleveland, OH

Home | Current Version | Previous Version | Graphics & Text | Print | Product List | Glossary On
Versions: 1 2 3 4 5 6 7 8 9 10 11 12 13 14 15 16 17 18 19 20 21 22 23 24 25 26 27 28 29 30 31 32 33 34 35 36 37 38 39 40 41 42 43 44 45 46 47 48 49 50
000
ASUS41 KCLE 111012
RWRCLE
OHIO REGIONAL WEATHER ROUNDUP
NATIONAL WEATHER SERVICE WILMINGTON, OH
500 AM EST THU FEB 11 2016

NOTE: "FAIR" INDICATES FEW OR NO CLOUDS BELOW 12,000 FEET WITH NO
SIGNIFICANT WEATHER AND/OR OBSTRUCTIONS TO VISIBILITY.

OHZ001>008-015>018-024>027-034-035-043-044-111100-
   NORTHWEST OHIO

CITY           SKY/WX    TMP DP  RH WIND       PRES   REMARKS
DEFIANCE       CLOUDY    16   9  74 W5        30.12S WCI   9
FINDLAY        CLOUDY    10   6  84 W6        30.10R WCI   0
TOLEDO EXPRESS CLOUDY    14   5  67 W8        30.10R WCI   3
TOLEDO EXEC    CLOUDY    14   4  64 NW12      30.12R WCI   0
LIMA           CLOUDY    13   8  81 W7        30.10R WCI   3
$$

OHZ009>014-019>023-028>033-038-089-111100-
   NORTHEAST OHIO

CITY           SKY/WX    TMP DP  RH WIND       PRES   REMARKS
CLE-HOPKINS    FLURRIES  15   3  59 NW16G23   30.06R WCI  -1
CLE-LAKEFRONT  CLOUDY    17   6  62 NW24G33   30.04R WCI  -1
CUY CO. ARPT   NOT AVBL
LORAIN-ELYRIA  CLOUDY    15   1  53 N22G30    30.05R WCI  -3
ASHTABULA      CLOUDY    13   2  61 NW14G20   29.98R WCI  -2
AKRON-CANTON   LGT SNOW  11   6  81 W14       30.00R WCI  -5
WOOSTER        MOCLDY     8   2  76 W10       30.03R WCI  -6
MANSFIELD      MOCLDY     7   4  87 W7        30.04R WCI  -5
YOUNGSTOWN     FLURRIES  13   3  64 W13       29.96R WCI  -2
$$

OHZ042-051>053-060>062-070>072-077>081-111100-
  SOUTHWEST OHIO

CITY           SKY/WX    TMP DP  RH WIND       PRES   REMARKS
CINC-COVINGTON CLOUDY    13   6  74 SW3       30.15R
CINC-LUNKEN    CLOUDY    16   8  71 W5        30.20R WCI   9
HAMILTON       MOCLDY    15   7  70 W3        30.18R
DAYTON         MOCLDY     8   4  83 W8        30.13R WCI  -4
WRIGHT-PAT AFB PTCLDY     6   1  82 W3        30.14R
DAYTON GENERAL FAIR       9   4  80 SW3       30.13R
WILMINGTON     FAIR       8   4  83 W5        30.12S WCI   0
$$

OHZ036-037-039>041-045>050-054>059-063>069-073>076-082>088-111100-
  CENTRAL AND SOUTHEAST OHIO

CITY           SKY/WX    TMP DP  RH WIND       PRES   REMARKS
COLUMBUS       MOCLDY     9   2  73 W9        30.12R WCI  -4
OSU AIRPORT    MOCLDY     8   2  76 W9        30.11R WCI  -5
BOLTON FIELD   FAIR       7   1  79 W3        30.13R
RICKENBACK AFB CLOUDY     8   1  73 W6        30.14R WCI  -2
NEWARK         FAIR       8   1  73 MISG      30.10R
MARION         FAIR      12   5  73 W8        30.09R WCI   0
LANCASTER      MOCLDY     7   0  73 W5        30.13R WCI  -2
ZANESVILLE     FAIR      11   4  73 W8        30.09R WCI  -1
NEW PHILLY     FAIR      12   3  67 W12       30.07R WCI  -2
$$



USA.gov is the U.S. government's official web portal to all federal, state and local government web resources and services.